Powrót do katalogu

AIST-2T NO. 1

AktywnyNaukaSSO
NORAD 67253·PAYLOAD·🇷🇺 Russia
Ta nazwa satelity nie została jeszcze potwierdzona przez oficjalne źródła.

Wystrzelony Dec 28, 2025 z Vostochny Cosmodrome

Loading…

Następne Przeloty (najbliższe 24 godziny)

TLE

ŚwieżeSource: Space-Track

Epoka: Sep 14, 2026, 11:50 UTC

1 67253U 25313F   26257.49332491  .00015465  00000-0  18740-3 0  9998
2 67253  97.0749 334.9552 0004094 236.2988 123.7880 15.60722897 40557

Śledź AIST-2T NO. 1 w czasie rzeczywistym z AllMySat

Download on the App Store